Regional Weather Roundup
Issued by NWS Wakefield, VA

Home | Current Version | Previous Version | Graphics & Text | Print | Product List | Glossary On
Versions: 1 2 3 4 5 6 7 8 9 10 11 12 13 14 15 16 17 18 19 20 21 22 23 24 25 26 27 28 29 30 31 32 33 34 35 36 37 38 39 40 41 42 43 44 45 46 47 48 49 50
000
ASUS41 KAKQ 041015
RWRAKQ

REGIONAL WEATHER ROUNDUP
NATIONAL WEATHER SERVICE WAKEFIELD VA
600 AM EDT FRI SEP 04 2015

Note: "fair" indicates few or no clouds below 12,000 feet with no
significant weather and/or obstructions to visibility. * = Denotes
station may not report precipitation (e.g., rain,snow,etc.),
thunder or fog.

VAZ042-051-052>054-056-041100-
NORTHERN VIRGINIA

CITY           SKY/WX    TMP DP  RH WIND       PRES   REMARKS
WASH NATIONAL  PTCLDY    75  69  81 N7        29.94R
DULLES         PTCLDY    73  67  81 NW3       29.95R
FORT BELVOIR   CLEAR     70  69  95 NW1       29.93R
QUANTICO       CLEAR     73  68  84 NW5       29.93R
FREDERICKSBRG* CLEAR     70  70 100 CALM      29.92R
STAFFORD*      CLEAR     67  65  94 CALM      29.97S FOG
WARRENTON        N/A     66  66 100 CALM      29.94R FOG
CULPEPER*      CLEAR     68  67  99 CALM      29.96R FOG
MANASSAS*      CLEAR     70  70 100 CALM      29.94R
LEESBURG*      CLEAR     73  72  94 N6        29.96S
WINCHESTER     CLEAR     68  68 100 CALM      29.99R FOG
FRONT ROYAL*   FAIR      68  68 100 CALM      29.98R
LURAY*         FOG       63  63 100 CALM      30.00R VSB 3/4
$$

VAZ048-049-060>072-079>083-041100-
CENTRAL AND SOUTH CENTRAL VIRGINIA

CITY           SKY/WX    TMP DP  RH WIND       PRES   REMARKS
RICHMOND       CLEAR     74  69  85 CALM      29.92S
CHESTERFIELD*  FAIR      70  57  64 CALM      29.94R
PETERSBURG*    CLEAR     69  69 100 CALM      29.93S FOG
HANOVER        PTCLDY    69  68  96 CALM      29.94R FOG
TAPPAHANNOCK*  PTCLDY    70  67  91 CALM      29.93R FOG
QUINTON*       FAIR      69  69  99 W5        29.91S FOG
CHARLOTTSVILLE CLEAR     70  67  90 SW3       29.96R
GORDONSVILLE*  FAIR      68  67  97 CALM      29.95R FOG
ORANGE*        CLEAR     68  68 100 CALM      29.96S FOG
LOUISA*        CLEAR     70  66  88 CALM      29.94R FOG
BUMPASS*       FAIR      69  69  98 CALM      29.94S
FARMVILLE*     CLEAR     67  67 100 CALM      29.94S FOG
CREWE*         FAIR     N/A N/A N/A CALM      29.94S
FORT PICKETT*  FAIR      70  67  92 W10       29.94S
CHASE CITY*    FAIR      70  70 100 CALM      29.95S
CLARKSVILLE*   FAIR      68  68 100 CALM      29.94S
SOUTH HILL*    CLEAR     67  67  99 CALM      29.99S
LAWRENCEVILLE* FAIR      70  70 100 N3        29.93S
EMPORIA*       FOG       68  68 100 CALM      29.94R VSB<1/4
$$

VAZ088>098-041100-
SOUTHEAST VIRGINIA

CITY           SKY/WX    TMP DP  RH WIND       PRES   REMARKS
NORFOLK        CLEAR     75  72  90 CALM      29.90S
VIRGINIA BEACH PTCLDY    75  70  84 CALM      29.89S
NORFOLK NAVAL  PTCLDY    73  71  93 CALM      29.92R FOG
WEST POINT*    CLEAR     72  69  91 CALM      29.93R
SALUDA*        FAIR      71  70  98 N6        29.91R
NEWPORT NEWS   CLEAR     71  70  96 CALM      29.90S FOG
LANGLEY AFB    CLEAR     73  72  97 CALM      29.89S FOG
FORT EUSTIS    CLEAR     73 N/A N/A CALM      29.89R
WILLIAMSBURG*  CLEAR     73  73 100 N3        29.92R
HR EXEC AP*      N/A     66  64  94 CALM      29.92S VSB 1
FRANKLIN*      PTCLDY    69  68  97 CALM      29.92R
WAKEFIELD      PTCLDY    71  68  90 CALM      29.91S FOG
$$

VAZ020-022-025-037-045-041100-
WEST CENTRAL AND SOUTHWEST VIRGINIA

CITY           SKY/WX    TMP DP  RH WIND       PRES   REMARKS
STAUNTON*      FOG       64  63  96 CALM      30.04R VSB 1
WAYNESBORO*    FAIR      66  64  96 CALM      30.03R
HOT SPRINGS VA CLEAR     66  62  85 N3        30.14R
LYNCHBURG      CLEAR     67  65  93 CALM      29.99S
DANVILLE       CLEAR     67  65  93 CALM      29.97R FOG
SOUTH BOSTON*  FAIR      67  65  95 CALM      29.95S
MARTINSVILLE   CLEAR     64  64 100 CALM      30.02R FOG
ROANOKE        CLEAR     67  65  93 W5        30.03S
BLACKSBURG     CLEAR     64  64 100 CALM      30.10R FOG
DUBLIN*        CLOUDY    66  66  97 CALM      30.09R
MARION*        MOCLDY    62  61  96 CALM      30.14R FOG
HILLSVILLE*    CLEAR     65  63  94 CALM      30.09S
RICHLANDS*     FAIR      65  38  37 CALM      30.12R HAZE
WISE*          CLEAR     64  64 100 CALM      30.14R FOG
ABINGDON*      CLEAR     67  65  94 CALM      30.09R
$$

MDZ021>025-VAZ099-100-041100-
SOUTHERN MARYLAND AND THE DELMARVA PENINSULA

CITY           SKY/WX    TMP DP  RH WIND       PRES   REMARKS
PATUXENT RIVER PTCLDY    69  67  93 W3        29.91R
BAY BRIDGE APT   N/A     77  72  83 N3        29.92R
LEONARDTOWN    NOT AVBL
DOVER          CLEAR     72  72 100 NW2       29.91R FOG
GEORGETOWN     PTCLDY    69  67  93 CALM      29.93R FOG
EASTON         CLEAR     73  73 100 CALM      29.95  FOG
CAMBRIDGE      MOCLDY    72  68  88 CALM      29.91R
SALISBURY      CLEAR     70  68  93 CALM      29.92R FOG
OCEAN CITY     CLEAR     70  68  93 CALM      29.91R
WALLOPS ISLAND CLEAR     73  73 100 NW6       29.92R FOG
ACCOMACK*      FOG       64  63  94 CALM      29.89R VSB 3/4
$$

NCZ012>017-030>032-041100-
NORTH CENTRAL AND EASTERN NORTH CAROLINA

CITY           SKY/WX    TMP DP  RH WIND       PRES   REMARKS
ROANOKE RAPIDS FAIR      68  68 100 CALM      29.93R FOG
RALEIGH        PTCLDY    71  68  90 CALM      29.95R FOG
ELIZABETH CITY CLEAR     69  69 100 CALM      29.91R FOG
AHOSKIE*       CLEAR     68  67  98 CALM      29.92R FOG
EDENTON*       CLEAR     71  69  95 CALM      29.91S FOG
CURRITUCK*     CLEAR     71  69  91 CALM      29.91S
KILL DEVIL HLS CLEAR     76  75  94 CALM      29.89S
MANTEO         PTCLDY    74  73  98 CALM      29.91S
CAPE HATTERAS  CLEAR     78  74  87 N3        29.90S
TARBORO*         N/A     69  68  97 CALM      29.93S FOG
GOLDSBORO      CLEAR     71  70  98 CALM      29.91S
WASHINGTON     CLEAR     69  67  96 CALM      29.93R
GREENVILLE     CLEAR     70  70 100 CALM      29.95R FOG
NEW BERN       CLEAR     71  69  93 CALM      29.93R
WILMINGTON     CLEAR     71  69  93 CALM      29.92S
$$

VAZ048-041100-
ELSEWHERE

CITY           SKY/WX    TMP DP  RH WIND       PRES   REMARKS
HARRISBURG PA  PTCLDY    73  68  84 NW5       29.96R
BALTIMORE      MOCLDY    73  68  84 CALM      29.93R
ANNAPOLIS      CLEAR     77  71  82 N5        29.92R
ANDREWS AFB    CLEAR     69  67  93 N2        29.93R
PHILADELPHIA   PTCLDY    77  68  73 E5        29.94R
HENDERSON NC   CLEAR     69  66  92 CALM      29.95R FOG
GREENSBORO     PTCLDY    73  66  78 N6        29.97S
ROCKY MOUNT    FOG       70  69  97 CALM      29.93S VSB 1/4
$$

VAZ100-041100-
MARINE

STATION/POSITION TIME  TEMP    WIND        PRES    WAVE   SWELL
                       AIR SEA DIR/SP/G            HT/PER HT/PER
                 (UTC) (F)     (DEG/KT/KT) (MB)    (FT/S) (FT/S)
BRANDYWINE LGT   0900   77 76   80/  6/  6 1012.8R
CAPE MAY NJ      0900   74 81   80/  4/  5 1012.3R
LEWES DE         0900   74 77     CALM     1012.3R
15NM E FENWICK I 0950   79 80   70/  6/  6 1013.0R   1/12   2/12
OCEAN-CITY-INLET 0900   75 78   10/  2/  3 1011.6R
GOOSES REEF MD   1000   80 80  350/  6/  6 1014.0R
COVE POINT MD    0900   78     350/  3/  4 1013.2R
SOLOMONS ISLAND  0900      82                N/A
BISHOPS HEAD MD  0900   77 83  330/  4/  4 1011.7R
PINEY POINT MD   0905          360/  4/  4   N/A
POTOMAC MD       1000   79 81  330/  2/  4 1011.8R
CAMBRIDGE MD     0900   77 82   CALM  /  1 1011.6R
LEWISETTA VA     0900   77 82   CALM  /  2 1012.1R
RAPPAHANNOCK LGT 0900          270/  4/  4 1012.9R
STINGRAY PT      1000   80 80  340/  6/  8 1013.0R   0
YORK RVR RNG VA  0906   78     320/  6/  7 1011.8F
JAMESTOWN VA     1000   77 82  340/  6/  8   N/A
DOMINION TERM VA 0900   79     330/  2/  3 1012.3S
KIPTOPEKE VA     0900      80  310/  1/  2   N/A
CHES BAY BRIDGE  0900   78 79  220/  4/  5 1011.9F
CAPE HENRY VA    0900   77     240/  5/  6   N/A
CHESAPEAKE LGHT  0900   78     300/  7/  7 1013.1S
WILLOUBY STN VA  0900   79     330/  2/  2 1013.3S
CAPE HENRY BUOY  0928      80                N/A     1/11
1ST LANDING BUOY 1000      79              1012.3R   0
CAPE CHARLES BUO 0926      79                N/A     1
OFFSHORE WE BUOY 0911      80                N/A     1/11   2/11
64NM E OF VA BCH 0950   79 79  320/  4/  6 1011.9F   1/12   2/12
DUCK PIER NC     0900   80 80  270/  6/  7 1011.7R
44100 DUCK FRF   0924      80                N/A     1/13
44056 DUCK FRF   0911      80                N/A     1/13
OREGON INLET NC  0900   78 82  290/  5/  7 1012.5R
HATTERAS NC      0900   80 83  330/  8/  9 1012.2R
DIAMOND SHLS NC  0950   81 85  340/  8/ 10 1012.6S   1/12   2/12
CAPE LOOKOUT NC  1000   79     330/  7/  7 1012.6R
$$


USA.gov is the U.S. government's official web portal to all federal, state and local government web resources and services.